Time-03,TemperatureF,Dew PointF,Humidity,Sea Level PressureIn,VisibilityMPH,Wind Direction,Wind SpeedMPH,Gust SpeedMPH,PrecipitationIn,Events,Conditions,WindDirDegrees,DateUTC
12:00 AM,55.4,53.6,94,30.18,-9999.0,South,5.8,-,N/A,,Clear,180,2013-07-02 03:00:00
1:00 AM,55.4,53.6,94,30.18,-9999.0,Calm,Calm,-,N/A,,Clear,0,2013-07-02 04:00:00
2:00 AM,55.4,53.6,94,30.15,-9999.0,Calm,Calm,-,N/A,,Clear,0,2013-07-02 05:00:00
3:00 AM,54,53,94,30.13,12,Calm,Calm,,,,,,2013-07-02 06:00:00
3:00 AM,53.6,53.6,100,30.15,-9999.0,Calm,Calm,-,N/A,,Clear,0,2013-07-02 06:00:00
4:00 AM,51.8,50.0,94,30.15,-9999.0,Calm,Calm,-,N/A,,Clear,0,2013-07-02 07:00:00
5:00 AM,48.2,46.4,93,30.15,-9999.0,Calm,Calm,-,N/A,,Clear,0,2013-07-02 08:00:00
6:00 AM,50.0,50.0,100,30.15,-9999.0,ENE,6.9,-,N/A,,Clear,70,2013-07-02 09:00:00
7:00 AM,48.2,48.2,100,30.15,-9999.0,NE,8.1,-,N/A,,Clear,50,2013-07-02 10:00:00
8:00 AM,48.2,48.2,100,30.18,-9999.0,NE,8.1,-,N/A,,Clear,50,2013-07-02 11:00:00
9:00 AM,53,52,93,30.17,12,NE,8.1,,,,,50,2013-07-02 12:00:00
9:00 AM,53.6,51.8,94,30.18,-9999.0,NE,8.1,-,N/A,,Clear,50,2013-07-02 12:00:00
10:00 AM,57.2,53.6,88,30.18,-9999.0,NE,8.1,-,N/A,,Clear,50,2013-07-02 13:00:00
11:00 AM,60.8,55.4,82,30.18,-9999.0,NE,9.2,-,N/A,,Clear,50,2013-07-02 14:00:00
12:00 PM,66.2,57.2,73,30.18,-9999.0,NE,6.9,-,N/A,,Clear,50,2013-07-02 15:00:00
1:00 PM,68.0,57.2,68,30.15,-9999.0,NE,8.1,-,N/A,,Clear,50,2013-07-02 16:00:00
2:00 PM,71.6,59.0,64,30.09,-9999.0,NE,4.6,-,N/A,,Clear,50,2013-07-02 17:00:00
3:00 PM,71,58,53,30.06,12,East,4.6,,,,,90,2013-07-02 18:00:00
3:00 PM,71.6,57.2,60,30.09,-9999.0,East,4.6,-,N/A,,Clear,90,2013-07-02 18:00:00
4:00 PM,71.6,57.2,60,30.06,-9999.0,Calm,Calm,-,N/A,,Clear,0,2013-07-02 19:00:00
5:00 PM,69.8,59.0,68,30.06,-9999.0,Calm,Calm,-,N/A,,Clear,0,2013-07-02 20:00:00
6:00 PM,66.2,60.8,83,30.09,-9999.0,Calm,Calm,-,N/A,,Clear,0,2013-07-02 21:00:00
7:00 PM,62.6,59.0,88,30.09,-9999.0,Calm,Calm,-,N/A,,Clear,0,2013-07-02 22:00:00
8:00 PM,60.8,57.2,88,30.09,-9999.0,NE,3.5,-,N/A,,Clear,50,2013-07-02 23:00:00
9:00 PM,58,55,88,30.09,12,NE,3.5,,,,,50,2013-07-03 00:00:00
9:00 PM,57.2,55.4,94,30.12,-9999.0,NE,3.5,-,N/A,,Clear,50,2013-07-03 00:00:00
10:00 PM,57.2,55.4,94,30.12,-9999.0,NE,5.8,-,N/A,,Clear,50,2013-07-03 01:00:00
11:00 PM,55.4,53.6,94,30.12,-9999.0,NE,6.9,-,N/A,,Clear,50,2013-07-03 02:00:00